Deming, NM

3:06 PM MST on December 04, 2016 (GMT -0700)
Deming Municipal

Weather History for KDMN - July, 2013

Change the Weather History Date:

Thursday, July 4, 2013

  Actual Average Record
Temperature  
Mean Temperature 82 °F 81 °F  
Max Temperature 96 °F 97 °F 107 °F (1957)
Min Temperature 67 °F 65 °F 56 °F (1983)
Cooling Degree Days 16    
Growing Degree Days 32 (Base 50)    
Moisture  
Dew Point 50 °F    
Average Humidity 38    
Maximum Humidity 55    
Minimum Humidity 20    
Precipitation  
Precipitation 0.00 in 0.05 in 1.68 in (1986)
Month to date precipitation 0.17 0.20  
Year to date precipitation 0.68 3.31  
Sea Level Pressure  
Sea Level Pressure 29.77 in    
Wind  
Wind Speed 9 mph (WNW)    
Max Wind Speed 25 mph    
Max Gust Speed 31 mph    
Visibility 9 miles    
Events      
T = Trace of Precipitation, MM = Missing Value Source: NWS Daily Summary

Daily Weather History Graph

Daily Weather History Graph

Search for Another Location

Airport or City:

Trip Planner

Search our weather history database for the weather conditions in past years. The results will help you decide how hot, cold, wet, or windy it might be!

Date:

Astronomy

Jul. 04, 2013 Rise Set
Actual Time 6:09 AM MDT 8:21 PM MDT
Civil Twilight 5:41 AM MDT 8:49 PM MDT
Nautical Twilight 5:06 AM MDT 9:23 PM MDT
Astronomical Twilight 4:29 AM MDT 10:01 PM MDT
Moon 3:23 AM MDT 5:31 PM MDT
Length of Visible Light 15h 08m
Length of Day
14h 12m
Waning Crescent, 11% of the Moon is Illuminated
Jul 4
Waning Crescent
Jul 8
New
Jul 15
First Quarter
Jul 22
Full
Jul 29
Last Quarter

Hourly Weather History & Observations

Time (MDT) Temp. Heat Index Dew Point Humidity Pressure Visibility Wind Dir Wind Speed Gust Speed Precip Events Conditions
12:53 AM 72.0 °F - 46.9 °F 41% 29.79 in 10.0 mi ESE 5.8 mph - N/A   Clear
1:53 AM 71.1 °F - 46.9 °F 42% 29.78 in 10.0 mi North 8.1 mph - N/A   Clear
2:53 AM 73.9 °F - 51.1 °F 45% 29.80 in 8.0 mi NNE 13.8 mph 25.3 mph N/A   Clear
3:53 AM 71.1 °F - 51.1 °F 49% 29.75 in 10.0 mi West 5.8 mph - N/A   Clear
4:53 AM 72.0 °F - 52.0 °F 49% 29.72 in 10.0 mi NW 4.6 mph - N/A   Clear
5:53 AM 71.1 °F - 52.0 °F 51% 29.74 in 10.0 mi Calm Calm - N/A   Clear
6:53 AM 68.0 °F - 51.1 °F 55% 29.76 in 10.0 mi Calm Calm - N/A   Clear
7:53 AM 72.0 °F - 52.0 °F 49% 29.78 in 10.0 mi West 4.6 mph - N/A   Clear
8:53 AM 78.1 °F - 51.1 °F 39% 29.78 in 10.0 mi WSW 5.8 mph - N/A   Clear
9:53 AM 82.9 °F - 48.9 °F 31% 29.77 in 10.0 mi West 13.8 mph 18.4 mph N/A   Clear
10:53 AM 87.1 °F - 51.1 °F 29% 29.76 in 10.0 mi West 11.5 mph 19.6 mph N/A   Clear
11:53 AM 90.0 °F - 51.1 °F 26% 29.75 in 10.0 mi WSW 10.4 mph 19.6 mph N/A   Clear
12:53 PM 91.0 °F - 50.0 °F 24% 29.72 in 10.0 mi WNW 9.2 mph - N/A   Clear
1:53 PM 91.9 °F - 50.0 °F 24% 29.70 in 10.0 mi Variable 6.9 mph - N/A   Clear
2:53 PM 95.0 °F - 48.0 °F 20% 29.66 in 10.0 mi NW 6.9 mph 18.4 mph N/A   Clear
3:53 PM 91.9 °F - 48.0 °F 22% 29.66 in 10.0 mi West 9.2 mph - N/A   Clear
4:53 PM 91.0 °F - 48.9 °F 23% 29.64 in 10.0 mi West 11.5 mph - N/A   Clear
5:53 PM 91.9 °F - 48.9 °F 23% 29.64 in 10.0 mi WNW 12.7 mph 16.1 mph N/A   Clear
6:12 PM 89.6 °F 87.3 °F 53.6 °F 29% 29.90 in 10.0 mi NNW 12.7 mph - N/A   Clear
6:53 PM 84.9 °F - 50.0 °F 30% 29.69 in 10.0 mi NNW 17.3 mph 25.3 mph N/A   Clear
7:33 PM 82.4 °F - 48.2 °F 30% 29.93 in 3.0 mi NNW 20.7 mph 31.1 mph N/A   Haze
7:53 PM 82.0 °F - 50.0 °F 33% 29.71 in 9.0 mi NNW 18.4 mph 29.9 mph N/A   Partly Cloudy
8:53 PM 81.0 °F - 48.0 °F 31% 29.68 in 5.0 mi WNW 15.0 mph - N/A   Haze
8:59 PM 80.6 °F - 48.2 °F 32% 29.92 in 2.0 mi WNW 12.7 mph - N/A   Haze
9:06 PM 82.4 °F - 46.4 °F 28% 29.92 in 1.0 mi WNW 15.0 mph 21.9 mph N/A   Haze
9:21 PM 80.6 °F - 48.2 °F 32% 29.93 in 3.0 mi NW 15.0 mph - N/A   Haze
9:34 PM 82.4 °F - 46.4 °F 28% 29.94 in 10.0 mi NNW 18.4 mph 24.2 mph N/A   Scattered Clouds
9:53 PM 81.0 °F - 48.0 °F 31% 29.70 in 10.0 mi North 18.4 mph 27.6 mph N/A   Clear
10:53 PM 77.0 °F - 51.1 °F 40% 29.74 in 10.0 mi WNW 10.4 mph 21.9 mph N/A   Clear
11:53 PM 75.0 °F - 53.1 °F 46% 29.72 in 10.0 mi WNW 6.9 mph - N/A   Clear